Back to catalog

STARLINK-11378

AliveCommunicationsVLEO
NORAD 62020·PAYLOAD·🇺🇸 United States

Launched Nov 18, 2024 from Vandenberg Space Force Base

Loading…

Next Passes (next 24 hours)

TLE

FreshSource: CelesTrak SupGP

Epoch: Sep 14, 2026, 22:19 UTC

1 62020C 24213N   26257.93034722  .00001176  00000+0  96838-5 0  2574
2 62020  53.1573 188.0296 0001140  97.4110 211.8886 15.69722046    15

Track STARLINK-11378 in real time with AllMySat

Download on the App Store